OISF  Fasa Airport

Add Bookmark

Fasa, Iran

Status IATA
Operational FAZ
Latitude Longitude
28° 53' 30" N 53° 43' 23" E
28.891800 53.723301
Local (DST + 5) UTC (GMT + 4)
Oct 31, 2014 11:12 Oct 31, 2014 19:42
Sunrise-Sunset Local UTC
Begin Civil Twilight 05:41 02:11
Sunrise 06:05 02:35
Sunset 05:11 13:41
End Civil Twilight 05:36 14:06

Current Weather

METAR Observed VFR
OISF 311850Z 00000KT 9999 SCT040 14/07 Q1018 Fri, Oct 31, 2014 @ 18:50 UTC
(52 Minutes ago)
Visual Flight Rules
Wind Visibility Clouds Conditions
Calm 10 km or more
  • Scattered at 4,000' AGL
  • No significant weather
Temperatures Readings Precipitation
Current Temp 14°C (57°F)
Dewpoint 7°C (45°F)
Humidity 63%
Altimeter 30.06"Hg
Sea Level Pressure 1018mb
Field Elevation 4537.4'
None Recorded

Additional weather within a 185.2km radius of OISF

Map ICAO Location
OISS 131.3km W (303°)
OISL 149.8km S (154°)
OISR 176.7km S (197°)
OIBJ 179.3km S (229°)

24 Hour Weather History

Loading
-

24 Hour Weather Graphs

Loading
-

CheckWX.com is intended as a tool to help pilots better visualize weather data. It is not intended as a substitute for an official weather briefing obtained from a Flight Service Station. CheckWX.com does not meet the FAA requirements for an official pre-flight weather briefing. Therefore, it's important that pilots still call and obtain an official FSS pre-flight weather briefing.